Погода в Сутуре

Погода в Сутуре : погода сейчас, прогноз погоды и архив. Всё, что Вы хотите узнать о погоде в Сутуре!

Поиск расширенной информации на нашем сайте:

Полезная информация: бухгалтерское обслуживание в строительстве

Другие новости

Новости СМИ2

Главная страница сайта

Новости сайта

02.10.2013

Напоминаем, что на нашем новом сайте вы можете получить высокодетализированные прогнозы погоды по пунктам России, СНГ и мира (включающие важные для авиации метеовеличины, такие как направление и скорость ветра, видимость, явления погоды, количество и форма облачности, нижняя и верхняя граница облачности), а также ознакомиться с разнообразными материалами по авиационной метеорологии и подборкой полезных ссылок на эту тему.

Сайт Метеоцентр.Азия посвящён разработке технологий оптимизации авиаметеорологического обслуживания, включая проектирование и перспективное создание нескольких автоматизированных авиаметеорологических систем:
- система выпуска высокодетальных прогностических карт явлений погоды для нижнего воздушного пространства по России и ближнему зарубежью;
- система верификации прогнозов TAF (выпускаемых синоптиками официальных АМСГ РФ и ближнего зарубежья) и AUTOTAF (выпускаемых сайтом Метеоцентр.Азия) - выявление ошибок, онлайн-сопоставление с фактической погодой METAR, автоматическое внесение коррективов в прогнозы при резком отклонении фактической погоды от прогноза, подсчёт оправдываемости прогнозов по элементам и в целом;
- система обработки, анализа и отображения авиаметеорологической информации для применения провайдерами метеорологической информации.

Рекомендуем: технические характеристики ВВГнг 4х150

Погода в Сутуре - сегодня

Время (UTC), дата Ветер
(°,м/с) 
Видим.   Явления Облачность Т
(°С)
Тd
(°С)
f(%) Тe
(°С)
Pmin
(гПа)
dP
(гПа)
Po
(мм)
O2
(г/м3)
Тmin Tmax R s Состояние
почвы
06 25.03.17 340 (С) 20000 м    9/4 600 м кучево-дожд., средняя, верхняя 
[Cb cap|Ac cuf|Ci ing]
+3.8 -8.8 39 +3  1015.5  -0.4  730  291           
09 25.03.17 190 (Ю) 20000 м    9/3 600 м кучево-дожд., средняя, верхняя 
[Cb cap|Ac lent|Ci ing]
+1.5 -6.9 54 +1  1016.1  0.3  730  293    +5.1       
12 25.03.17 200 (Ю) 20000 м    3/0 средняя 
[Ac lent]
-0.7 -7.3 61 1017.3  0.8  731  296           
15 25.03.17 тихо ()   20000 м    9/0 средняя 
[Ac lent]
-2.7 -7.2 71 -3  1017.5  0.1  731  298           
18 25.03.17 350 (С) 20000 м    10/0 средняя 
[Ac lent]
-4.9 -8.1 78 -4  1017.7  -0.2  731  301           
21 25.03.17 010 (С) 20000 м    8/0 средняя 
[Ac trans]
-6.4 -8.3 86 -6  1018.1  0.2  731  302  -6.6         
00 26.03.17 340 (С) 20000 м    3/0 средняя 
[Ac trans]
-1.5 -7.9 62 -1  1017.8  0.2  731  297           
03 26.03.17 230 (ЮЗ) 20000 м    8/4 600 м кучево-дожд., средняя 
[Cb cap|Ac cast]
+4 -8.5 40 +4  1016.5  -0.4  731  291           
06 26.03.17 360 (С) 20000 м    8/4 1000 м средняя 
[Sc diur, vesp|Ac cast]
+5 -12.7 26 +5  1014.9  -1.4  730  290           
09 26.03.17 340 (С) 20000 м    6/0 1000 м средняя 
[Sc diur, vesp|Ac lent]
+3.1 -11.5 33 +3  1015.4  0.1  730  292    +5.7       
12 26.03.17 тихо ()   20000 м    3/0 средняя 
[Ac lent]
-1 -9.4 53 -1  1016.8  0.8  731  296           
15 26.03.17 350 (С) 20000 м    ясно 
-4.4 -9.2 69 -4  1017.3  0.1  731  300           
18 26.03.17 тихо ()   20000 м    8/0 верхняя 
[Ci fib]
-6 -8.4 83 -6  1017.3  -0.2  730  302           
21 26.03.17 360 (С) 20000 м    8/4 1000 м средняя 
[Sc|Ac lent]
-6.4 -9.7 77 -6  1017  -0.4  730  302  -6.6         
00 27.03.17 220 (ЮЗ) 20000 м    8/3 1000 м средняя 
[Sc diur, vesp|Ac lent]
-0.4 -9.4 51 1016.6  0.4  731  296  -7.5         
03 27.03.17 220 (ЮЗ) 20000 м    8/4 600 м средняя 
[Sc diur, vesp|Ac lent]
+4.4 -11.2 31 +4  1014.3  0.4  729  290           
06 27.03.17 250 (З) 20000 м    8/3 600 м средняя 
[Sc diur, vesp|Ac cast]
+5.6 -12.6 26 +6  1012.1  -1.9  728  288           
09 27.03.17 300 (СЗ) 20000 м    6/3 600 м средняя 
[Sc diur, vesp|Ac cast]
+4.7 -12.7 27 +6  1012.1  -0.2  728  289    +5.9       
12 27.03.17 360 (С) 20000 м    3/0 средняя 
[Ac lent]
-0.7 -9.5 51 1013.6  0.7  728  295           
15 27.03.17 270 (З) 20000 м    ясно 
-3.2 -9.4 62 -3  1013.7  -0.3  728  298           
18 27.03.17 тихо ()   20000 м    ясно 
-5.8 -8.6 81 -6  1014  0.1  728  301           
21 27.03.17 020 (С) 20000 м    ясно 
-8.3 -10 87 -8  1014.5  0.1  728  304  -8.5         
00 28.03.17 310 (СЗ) 20000 м    ясно 
-1.6 -7.1 66 -1  1013.6  0.2  728  296  -8.8         
03 28.03.17 340 (С) 20000 м    8/8 600 м 
[Cu hum]
+5.5 -12.3 26 +4  1011.2  -1.3  727  288           
06 28.03.17 320 (СЗ) 20000 м    8/8 1000 м 
[Cu hum]
+5.5 -12 27 +4  1010.2  -0.9  727  288           
Время (UTC), дата Ветер
(°,м/с) 
Видим.   Явления Облачность Т
(°С)
Тd
(°С)
f(%) Тe
(°С)
Pmin
(гПа)
dP
(гПа)
Po
(мм)
O2
(г/м3)
Тmin Tmax R s Состояние
почвы

Для получения пояснительной информации подведите курсор к названию столбца.

ПОГОДА в Сутуре - архив

Всё, что Вы хотите узнать о погоде в Сутуре - удобно и подробно!

Выберите нужную дату (начиная с 1 января 2015* года) и нажмите кнопку "Найти".
Будут отображены архивные сводки погоды по пункту Сутур, начиная с указанной даты.


Отображать данные в формате CSV (для использования в таблицах Excel)


Внимание! Наш архив погоды предназначен исключительно для личного некоммерческого использования в познавательных целях. Если Вам необходимы официальные справки о состоянии погоды (для производственных, юридических, коммерческих и т.п. целей), обращайтесь в органы Росгидромета.

*Примечание: данная дата относится к архиву по метеостанциям СССР (Россия, СНГ, Балтия).
Архив по метеостанциям Зарубежной Европы и Азии (кроме Китая) хранится 10 дней, по другим регионам земного шара (Китай, Африка, Америка, Австралия, Океания) - 1 день.

Сутур - район местоположения метеостанции


Название, широта, долгота, высота метеостанции:
Сутур 50.1°ш. 132.1°д. 347 м над ур. моря [Российская Федерация]

Дополнительная информация

В oтличие oт бoльшинства пoгoдных сайтoв мы публикуем пoдрoбную метеoинфoрмацию в детальнoм прoфессиoнальнoм фoрмате.

Характеристики температуры и влажнoсти вoздуха измеряются на высoте 2 м в тени вдали oт зданий и деревьев.
Скoрoсть ветра измеряется на высoте 10 м (на урoвне рoста челoвека скoрoсть ветра ниже в 1.5-2 раза). Если метеoстанция нахoдится в гoрoде или в лесу, тo скoрoсть ветра занижена на 2-4 м/с пo сравнению с oткрытым местoм. Скoрoсть ветра над акватoриями крупных рек и oзёр, а также на вершинах хoлмoв на 2-5 м/с выше, чем в oбычных услoвиях.
Атмoсфернoе давление в разных тoчках местнoсти мoжет значительнo oтличаться oт давления на метеoстанции, в зависимoсти oт услoвий рельефа (при пoдъёме на 10 м давление пoнижается примернo на 1 мм рт.ст.).